Location: Angwan Shehu
(11.2514°N, 7.4613°E)
Time: 02:06:28
(UTC+00:00)

Tiros 1 - Pass Details

Date: 29 April 2021
Orbit: 630 x 664 km, 48.4° (Epoch: 06 May)

Event Time Altitude Azimuth Distance (km) Brightness Sun altitude
Rises 12:04:28 0° 345° (NNW) 2,903 10.6 80.4°
Reaches altitude 10° 12:07:40 10° 9° (N) 1,995 9.9 79.6°
Maximum altitude 12:10:22 15° 45° (NE) 1,670 9.4 79.0°
Drops below altitude 10° 12:13:04 10° 81° (E) 1,998 9.7 78.4°
Sets 12:16:16 0° 104° (ESE) 2,908 10.4 77.7°
